Weather History for Greenville, NC

Change the Weather History Date:

Monday, October 29, 2012

  Actual Average Record
Temperature  
Mean Temperature 45 °F -  
Max Temperature 51 °F 69 °F 89 °F (1939)
Min Temperature 39 °F 45 °F 25 °F (1976)
Degree Days  
Heating Degree Days 20    
Moisture  
Dew Point 44 °F    
Average Humidity 89    
Maximum Humidity 100    
Minimum Humidity 71    
Precipitation  
Precipitation 0.28 in - - ()
Sea Level Pressure  
Sea Level Pressure 29.43 in    
Wind  
Wind Speed 12 mph (WNW)    
Max Wind Speed 16 mph    
Max Gust Speed 28 mph    
Visibility 8 miles    
Events      
Averages and records for this station are not official NWS values.
T = Trace of Precipitation, MM = Missing Value Source: NWS Daily Summary

Daily Weather History Graph

Daily Weather History Graph

Search for Another Location

Airport:

Trip Planner

Search our weather history database for the weather conditions in past years. The results will help you decide how hot, cold, wet, or windy it might be!

Date:

Astronomy

Oct. 29, 2012 Rise Set
Actual Time 7:29 AM EDT 6:16 PM EDT
Civil Twilight 7:02 AM EDT 6:43 PM EDT
Nautical Twilight 6:32 AM EDT 7:13 PM EDT
Astronomical Twilight 6:03 AM EDT 7:42 PM EDT
Moon 6:09 PM EDT (10/29) 7:16 AM EDT (10/29)
Length of Visible Light 11h 40m
Length of Day
10h 47m
Full, 100% of the Moon is Illuminated
Oct 29
Full
Oct 29
Full
Nov 6
Last Quarter
Nov 13
New
Nov 20
First Quarter

Hourly Weather History & Observations

Time (EDT) Temp. Windchill Dew Point Humidity Pressure Visibility Wind Dir Wind Speed Gust Speed Precip Events Conditions
12:15 AM 51.8 °F - 48.2 °F 88% 29.51 in 10.0 mi NNW 11.5 mph 19.6 mph N/A   Overcast
12:55 AM 51.8 °F - 50.0 °F 94% 29.51 in 5.0 mi NNW 13.8 mph 19.6 mph N/A   Overcast
1:15 AM 51.8 °F - 50.0 °F 94% 29.51 in 3.0 mi NNW 10.4 mph 20.7 mph N/A   Overcast
1:35 AM 51.8 °F - 50.0 °F 94% 29.50 in 4.0 mi NNW 9.2 mph 20.7 mph N/A   Overcast
1:55 AM 51.8 °F - 50.0 °F 94% 29.50 in 3.0 mi NNW 10.4 mph 21.9 mph 0.01 in   Overcast
2:15 AM 51.8 °F - 50.0 °F 94% 29.49 in 5.0 mi NNW 11.5 mph 16.1 mph N/A   Overcast
2:35 AM 51.8 °F - 50.0 °F 94% 29.49 in 4.0 mi NNW 11.5 mph 21.9 mph N/A   Overcast
2:55 AM 51.8 °F - 50.0 °F 94% 29.48 in 5.0 mi NW 12.7 mph 20.7 mph N/A   Overcast
3:15 AM 51.8 °F - 50.0 °F 94% 29.48 in 7.0 mi NW 11.5 mph 20.7 mph N/A   Overcast
3:35 AM 51.8 °F - 50.0 °F 94% 29.47 in 5.0 mi NNW 10.4 mph 20.7 mph N/A   Overcast
3:55 AM 51.8 °F - 50.0 °F 94% 29.48 in 4.0 mi NW 13.8 mph 20.7 mph N/A   Overcast
4:15 AM 51.8 °F - 50.0 °F 94% 29.46 in 5.0 mi NW 11.5 mph 20.7 mph N/A   Overcast
4:35 AM 51.8 °F - 50.0 °F 94% 29.46 in 5.0 mi NW 12.7 mph 20.7 mph 0.01 in   Overcast
4:55 AM 51.8 °F - 50.0 °F 94% 29.46 in 10.0 mi NW 12.7 mph 20.7 mph 0.01 in   Overcast
5:15 AM 50.0 °F - 48.2 °F 94% 29.47 in 3.0 mi WNW 12.7 mph 23.0 mph N/A   Overcast
5:35 AM 50.0 °F - 48.2 °F 94% 29.47 in 4.0 mi NW 12.7 mph 19.6 mph 0.01 in   Overcast
5:55 AM 50.0 °F - 48.2 °F 94% 29.47 in 4.0 mi WNW 16.1 mph 21.9 mph 0.02 in   Overcast
6:15 AM 48.2 °F - 46.4 °F 93% 29.47 in 3.0 mi WNW 13.8 mph 21.9 mph 0.02 in   Overcast
6:55 AM 48.2 °F - 46.4 °F 93% 29.47 in 7.0 mi WNW 11.5 mph 24.2 mph 0.04 in   Overcast
7:15 AM 48.2 °F - 46.4 °F 93% 29.47 in 5.0 mi WNW 12.7 mph 21.9 mph N/A   Overcast
7:35 AM 46.4 °F 40.4 °F 46.4 °F 100% 29.47 in 4.0 mi WNW 13.8 mph 23.0 mph 0.01 in   Overcast
7:55 AM 46.4 °F 40.7 °F 46.4 °F 100% 29.47 in 4.0 mi NW 12.7 mph 20.7 mph 0.03 in   Overcast
8:15 AM 46.4 °F 40.4 °F 44.6 °F 93% 29.47 in 7.0 mi NW 13.8 mph 21.9 mph 0.01 in   Overcast
8:35 AM 48.2 °F - 44.6 °F 87% 29.48 in 7.0 mi NW 11.5 mph 20.7 mph 0.02 in   Overcast
8:55 AM 46.4 °F 39.8 °F 46.4 °F 100% 29.47 in 7.0 mi NW 16.1 mph 24.2 mph 0.04 in   Overcast
9:15 AM 46.4 °F 40.4 °F 46.4 °F 100% 29.46 in 10.0 mi NW 13.8 mph 20.7 mph N/A   Overcast
9:35 AM 46.4 °F 40.4 °F 44.6 °F 93% 29.46 in 10.0 mi NNW 13.8 mph 21.9 mph N/A   Overcast
9:55 AM 46.4 °F 40.7 °F 44.6 °F 93% 29.45 in 10.0 mi NW 12.7 mph 21.9 mph N/A   Overcast
10:35 AM 46.4 °F 41.5 °F 44.6 °F 93% 29.45 in 7.0 mi NW 10.4 mph 20.7 mph 0.03 in   Overcast
10:55 AM 46.4 °F 40.1 °F 44.6 °F 93% 29.44 in 7.0 mi NW 15.0 mph 20.7 mph 0.05 in   Overcast
11:15 AM 46.4 °F 41.5 °F 44.6 °F 93% 29.44 in 10.0 mi NW 10.4 mph 17.3 mph 0.01 in   Overcast
11:35 AM 46.4 °F 41.1 °F 44.6 °F 93% 29.43 in 10.0 mi NW 11.5 mph 20.7 mph 0.02 in   Overcast
11:55 AM 46.4 °F 41.5 °F 44.6 °F 93% 29.44 in 10.0 mi WNW 10.4 mph 21.9 mph 0.02 in   Overcast
12:15 PM 46.4 °F 41.1 °F 44.6 °F 93% 29.43 in 10.0 mi WNW 11.5 mph 20.7 mph 0.01 in   Overcast
12:35 PM 44.6 °F 38.8 °F 42.8 °F 93% 29.43 in 10.0 mi WNW 11.5 mph 18.4 mph 0.01 in   Overcast
12:55 PM 44.6 °F 39.7 °F 42.8 °F 93% 29.42 in 10.0 mi WNW 9.2 mph 20.7 mph 0.02 in   Overcast
1:15 PM 44.6 °F 38.4 °F 42.8 °F 93% 29.42 in 10.0 mi WNW 12.7 mph 20.7 mph N/A   Overcast
1:35 PM 44.6 °F 38.1 °F 42.8 °F 93% 29.41 in 10.0 mi West 13.8 mph 19.6 mph N/A   Overcast
1:55 PM 44.6 °F 37.8 °F 42.8 °F 93% 29.41 in 10.0 mi WNW 15.0 mph 23.0 mph N/A   Overcast
2:15 PM 44.6 °F 37.8 °F 42.8 °F 93% 29.40 in 10.0 mi WNW 15.0 mph 19.6 mph N/A   Overcast
2:35 PM 44.6 °F 39.7 °F 41.0 °F 87% 29.38 in 10.0 mi WNW 9.2 mph 26.5 mph N/A   Overcast
2:55 PM 46.4 °F 40.1 °F 41.0 °F 81% 29.38 in 10.0 mi WNW 15.0 mph 26.5 mph N/A   Overcast
3:15 PM 46.4 °F 39.8 °F 41.0 °F 81% 29.37 in 10.0 mi WNW 16.1 mph 24.2 mph N/A   Overcast
3:35 PM 46.4 °F 40.1 °F 41.0 °F 81% 29.37 in 10.0 mi West 15.0 mph 24.2 mph N/A   Overcast
4:15 PM 46.4 °F 39.8 °F 39.2 °F 76% 29.37 in 10.0 mi West 16.1 mph 26.5 mph N/A   Overcast
4:35 PM 46.4 °F 40.1 °F 39.2 °F 76% 29.36 in 10.0 mi West 15.0 mph 23.0 mph N/A   Overcast
4:55 PM 46.4 °F 40.1 °F 37.4 °F 71% 29.36 in 10.0 mi WNW 15.0 mph 24.2 mph N/A   Overcast
5:15 PM 44.6 °F 38.1 °F 39.2 °F 81% 29.36 in 10.0 mi West 13.8 mph 20.7 mph N/A   Overcast
5:35 PM 44.6 °F 38.4 °F 39.2 °F 81% 29.36 in 10.0 mi WNW 12.7 mph 24.2 mph 0.01 in   Overcast
5:55 PM 44.6 °F 37.8 °F 37.4 °F 76% 29.36 in 10.0 mi West 15.0 mph 24.2 mph 0.01 in   Overcast
6:15 PM 44.6 °F 38.8 °F 37.4 °F 76% 29.36 in 10.0 mi West 11.5 mph 19.6 mph N/A   Overcast
6:35 PM 44.6 °F 38.4 °F 37.4 °F 76% 29.35 in 10.0 mi West 12.7 mph 23.0 mph N/A   Overcast
6:55 PM 44.6 °F 38.1 °F 35.6 °F 71% 29.34 in 10.0 mi WNW 13.8 mph 24.2 mph N/A   Overcast
7:15 PM 44.6 °F 38.4 °F 35.6 °F 71% 29.34 in 10.0 mi West 12.7 mph 21.9 mph N/A   Overcast
7:35 PM 44.6 °F 38.1 °F 37.4 °F 76% 29.35 in 10.0 mi West 13.8 mph 18.4 mph N/A   Overcast
7:55 PM 44.6 °F 38.8 °F 37.4 °F 76% 29.35 in 10.0 mi West 11.5 mph 24.2 mph N/A   Overcast
8:15 PM 42.8 °F 37.5 °F 37.4 °F 81% 29.35 in 10.0 mi West 9.2 mph 21.9 mph N/A   Overcast
8:35 PM 42.8 °F 35.4 °F 37.4 °F 81% 29.35 in 10.0 mi West 15.0 mph 25.3 mph 0.01 in   Overcast
8:55 PM 41.0 °F 34.3 °F 37.4 °F 87% 29.35 in 10.0 mi West 11.5 mph 27.6 mph 0.01 in   Overcast
11:35 PM 39.2 °F 31.2 °F 37.4 °F 93% 29.34 in 10.0 mi West 13.8 mph 27.6 mph 0.01 in   Overcast
11:55 PM 39.2 °F 30.8 °F 37.4 °F 93% 29.34 in 10.0 mi WSW 15.0 mph 24.2 mph 0.02 in   Overcast